Starlink 4152

operational
NORAD ID: 53136 Int'l Des: 2022-083 Owner: SPXS Country: US Constellation: starlink
LEOCIRCULAR

About Starlink 4152

Description loading...

Live Position

Loading 3D Globe...

Upcoming Passes

Altitude History

Altitude vs Time

uPlot chart will show altitude changes over time

Two-Line Element Set

1 53136U 22083E 25296.36267792 .00000925 00000-0 76170-4 0 9990
2 53136 53.2160 70.6042 0001230 86.9164 273.1969 15.08838201181470
Epoch: Oct 23, 2025 • Age: 30 hours

Current Status

Altitude 559.2 km
Velocity 7.58 km/s
Sub-Earth Point -53.36°S, 85.55°E
Launch Date Jul 17, 2022
Age 3.2 years
Type internet

Technical Details

Classification Payload
Mass 297.00 kg
Dry Mass 275.00 kg
Total Mass 297.00 kg
Length 0.20 m
Diameter 2.80 m
Span 9.00 m
Shape Box + pan
Manufacturer SPXS
Bus Type Starlink
Phase Status In Orbit
Owner/State SPXS/US

Large Constellations

Loading constellations...